[[{"header":{"parameterUnit":"m.s-1","parameterCategory":1,"la1":30.2991,"la2":30.254,"lo1":-89.0895,"lo2":-89.0444,"dy":0.0017,"dx":0.0017,"nx":28,"ny":28,"refTime":"2024-05-26T21:00:00:Z","depth":0,"parameterNumber":2,"parameterNumberName":"U-component_of_WINDS"},"data":[0,0,0,0,0,0,0,0,0,0,0,0,0,0,0,0,0,0,0,0,0,0,0,0,0,0,0,0,0,0,0,0,0,0,0,0,0,0,0,0,0,0,0,0,0,0,0,0,0,0,0,0,0,0,0,0,0,0,0.756,0.7561,0,0.7638,0.7639,0.764,0.7652,0.7652,0.7651,0.765,0.7729,0.7731,0.7734,0,0,0,0,0,0,0,0,0,0,0,0,0,0.742,0.7423,0.756,0.7561,0.7562,0.7638,0.7639,0.764,0.7653,0.7652,0.7651,0.765,0.7728,0.7731,0.7734,0,0,0,0,0,0,0,0,0,0,0,0,0,0.7488,0.7424,0.756,0.7577,0.758,0.7637,0.7639,0.764,0.7653,0.7652,0.7651,0.765,0.7727,0.7731,0.7734,0.7779,0,0,0.7747,0.7749,0,0,0,0,0,0,0,0,0.7484,0.7493,0.7574,0.7576,0.7579,0.7634,0.7618,0.7687,0.7653,0.7625,0.765,0.7649,0.7698,0.7704,0.7721,0.7783,0.7786,0.7747,0.775,0.7751,0.7753,0,0,0,0,0,0,0,0.7479,0.749,0.7591,0.7575,0.7578,0.7581,0.7589,0.7631,0.7666,0.7627,0.7629,0.7638,0.7699,0.7717,0.7723,0.7788,0.7747,0.7751,0.7753,0.7755,0.789,0.7891,0,0,0,0,0,0,0.7472,0.7486,0.7588,0.7593,0.7528,0.7584,0.7594,0.7618,0.7666,0.7672,0.7638,0.7638,0.7711,0.7718,0.7726,0.7781,0.7751,0.7755,0.7757,0.7888,0.789,0.7891,0,0,0,0,0,0,0.7469,0.7481,0.7585,0.754,0.7553,0.7588,0.7614,0.762,0.7638,0.7674,0.768,0.765,0.771,0.772,0.7766,0.7784,0.7757,0.7761,0.7887,0.7889,0.789,0.7893,0,0,0,0,0,0,0.7465,0.748,0.7498,0.754,0.7556,0.7625,0.7616,0.7622,0.7645,0.7645,0.7687,0.7693,0.771,0.776,0.777,0.7789,0.7764,0.7886,0.7888,0.789,0.7891,0.7894,0.7897,0,0,0,0,0,0.746,0.7495,0.7498,0.7511,0.7579,0.7626,0.7635,0.7654,0.7646,0.7664,0.7687,0.7692,0.778,0.7764,0.7776,0.7797,0.7885,0.7887,0.789,0.789,0.7894,0.7897,0,0,0,0,0,0,0.7453,0.7501,0.7505,0.7556,0.7587,0.7628,0.7651,0.7658,0.7691,0.769,0.7712,0.7721,0.7766,0.7786,0.7767,0.7842,0.7832,0.7837,0.7828,0.7832,0.7835,0.7829,0.7767,0,0,0,0,0,0.7458,0.7493,0.7532,0.7572,0.7588,0.7617,0.7638,0.765,0.7683,0.7696,0.7723,0.7754,0.7789,0.7811,0.7845,0.7894,0.7903,0.7914,0.7916,0.7919,0.7923,0.7949,0.7954,0.79,0.79,0.7899,0,0,0.7467,0.7498,0.7518,0.7572,0.7597,0.7632,0.7628,0.7665,0.7691,0.7702,0.7747,0.7767,0.7803,0.7851,0.7873,0.7868,0.794,0.7922,0.7923,0.7927,0.7952,0.7958,0.7962,0.7901,0.7901,0.7901,0,0,0.7503,0.7529,0.7566,0.7592,0.763,0.7649,0.7658,0.7698,0.7712,0.7758,0.7767,0.7797,0.7857,0.7882,0.7903,0.7947,0.7952,0.7957,0.7973,0.7998,0.8002,0.8006,0.8022,0.8027,0.7961,0.7961,0.7961,0,0.751,0.7563,0.7584,0.7621,0.7644,0.7655,0.7692,0.7716,0.7763,0.7779,0.7773,0.7848,0.7873,0.7926,0.7937,0.7953,0.7963,0.7953,0.8,0.8004,0.8008,0.8023,0.8029,0.7962,0.7962,0.7962,0.7961,0,0.757,0.7607,0.7631,0.7678,0.7704,0.774,0.7765,0.7789,0.7798,0.7818,0.7863,0.7894,0.7934,0.7947,0.7957,0.8002,0.7998,0.7996,0.7986,0.8014,0.8028,0.8034,0.7962,0.7962,0.7962,0.7962,0,0,0.7604,0.7661,0.767,0.7691,0.7734,0.7763,0.7799,0.7839,0.7858,0.789,0.7921,0.7971,0.797,0.7993,0.8005,0.8028,0.806,0.8023,0.8024,0.8029,0.811,0.8111,0.8118,0.8063,0.8064,0.8065,0.8107,0,0.7645,0.7712,0.7731,0.7786,0.7821,0.7831,0.7863,0.7893,0.7911,0.7942,0.7962,0.7997,0.7993,0.8007,0.8029,0.8051,0.8077,0.8049,0.8092,0.8093,0.8083,0.8125,0.8127,0.8165,0.8113,0.8114,0.8115,0,0.7701,0.7735,0.7795,0.7833,0.7848,0.7877,0.7914,0.7944,0.7977,0.7989,0.8014,0.8025,0.8062,0.8049,0.8101,0.8081,0.81,0.8113,0.8115,0.812,0.8106,0.8132,0.8178,0.8184,0.8124,0.8123,0.8122,0,0.772,0.7781,0.7824,0.7842,0.7888,0.7907,0.7927,0.7959,0.7982,0.8014,0.8029,0.8065,0.8085,0.8112,0.8131,0.812,0.8181,0.817,0.8191,0.8191,0.8204,0.8203,0.8254,0.8215,0.8215,0.8215,0.8215,0,0.7764,0.78,0.7833,0.786,0.79,0.7921,0.796,0.798,0.8008,0.8038,0.805,0.8077,0.8101,0.8132,0.8147,0.8187,0.8196,0.8206,0.8209,0.8205,0.8204,0.8218,0.8215,0.8217,0.8216,0.8216,0.8216,0,0.7792,0.7816,0.7864,0.7904,0.7914,0.7942,0.7976,0.8001,0.802,0.8058,0.8068,0.8097,0.8133,0.8155,0.8201,0.8211,0.8255,0.8258,0.8245,0.8246,0.8266,0.8264,0.8328,0.8337,0.8292,0.8293,0.8293,0,0.7819,0.7847,0.7889,0.7911,0.7931,0.7965,0.7988,0.8009,0.8033,0.8072,0.8093,0.813,0.8161,0.8219,0.8243,0.8278,0.8282,0.8302,0.8287,0.8281,0.8282,0.828,0.8283,0.8304,0.8305,0.8305,0.8305,0,0.7863,0.7873,0.7907,0.7944,0.7972,0.8002,0.8032,0.8048,0.8074,0.81,0.8137,0.8162,0.8208,0.8245,0.8282,0.8301,0.8307,0.8309,0.8316,0.8312,0.8303,0.8308,0.8251,0.8308,0.8308,0.8308,0.8307,0.8307,0.7891,0.7917,0.7951,0.7987,0.8012,0.804,0.8066,0.8088,0.812,0.816,0.817,0.821,0.8241,0.8291,0.8311,0.8342,0.8339,0.8348,0.8351,0.8353,0.8353,0.8298,0.8348,0.8348,0.8348,0.8348,0.8348,0,0.7936,0.7959,0.7992,0.8034,0.8062,0.8066,0.8099,0.8123,0.8158,0.8187,0.8217,0.826,0.8295,0.8322,0.8358,0.8377,0.838,0.8386,0.8384,0.8389,0.8354,0.8345,0.8382,0.8382,0.8382,0.8382,0.8382,0.8382,0.7963,0.8006,0.802,0.8075,0.8097,0.8136,0.8155,0.818,0.8203,0.8251,0.8281,0.8298,0.8326,0.8364,0.8396,0.8403,0.8415,0.842,0.8427,0.8395,0.8391,0.8388,0.8379,0.8423,0.8423,0.8459,0.8459,0.846]},{"header":{"parameterUnit":"m.s-1","parameterCategory":1,"la1":30.2991,"la2":30.254,"lo1":-89.0895,"lo2":-89.0444,"dy":0.0017,"dx":0.0017,"nx":28,"ny":28,"refTime":"2024-05-26T21:00:00:Z","depth":0,"parameterNumber":3,"parameterNumberName":"V-component_of_WINDS"},"data":[0,0,0,0,0,0,0,0,0,0,0,0,0,0,0,0,0,0,0,0,0,0,0,0,0,0,0,0,0,0,0,0,0,0,0,0,0,0,0,0,0,0,0,0,0,0,0,0,0,0,0,0,0,0,0,0,0,0,7.4972,7.4972,0,7.4989,7.499,7.499,7.4956,7.4954,7.4953,7.4952,7.4968,7.4969,7.497,0,0,0,0,0,0,0,0,0,0,0,0,0,7.4907,7.4908,7.4972,7.4972,7.4972,7.4989,7.499,7.499,7.4956,7.4954,7.4953,7.4952,7.4967,7.4969,7.4971,0,0,0,0,0,0,0,0,0,0,0,0,0,7.4931,7.4908,7.4972,7.4957,7.4956,7.4989,7.499,7.499,7.4956,7.4954,7.4953,7.4951,7.4967,7.4969,7.4971,7.5018,0,0,7.4977,7.4978,0,0,0,0,0,0,0,0,7.4929,7.4933,7.4959,7.4958,7.4957,7.4969,7.4972,7.4999,7.4956,7.4956,7.4952,7.495,7.4969,7.4971,7.4978,7.5018,7.5019,7.4978,7.4979,7.498,7.4981,0,0,0,0,0,0,0,7.4928,7.4932,7.4979,7.496,7.4959,7.4949,7.4951,7.4977,7.4972,7.4956,7.4954,7.4956,7.4968,7.4976,7.4978,7.5019,7.4978,7.498,7.4981,7.4982,7.51,7.5101,0,0,0,0,0,0,7.4928,7.4931,7.4978,7.4979,7.4939,7.4952,7.4954,7.4967,7.4971,7.497,7.4958,7.4955,7.4973,7.4975,7.4978,7.5034,7.498,7.4982,7.4983,7.5098,7.51,7.5102,0,0,0,0,0,0,7.4927,7.4933,7.4977,7.4954,7.4959,7.4955,7.497,7.4968,7.4975,7.4973,7.4971,7.4967,7.4972,7.4975,7.5008,7.5034,7.4983,7.4985,7.5096,7.5098,7.5101,7.5145,0,0,0,0,0,0,7.4925,7.4932,7.4951,7.4955,7.4961,7.5008,7.4971,7.4969,7.498,7.4976,7.4981,7.498,7.4971,7.5005,7.5011,7.5036,7.4987,7.5093,7.5097,7.51,7.5141,7.5149,7.5155,0,0,0,0,0,7.4923,7.4962,7.4952,7.4958,7.4984,7.501,7.5013,7.5002,7.4982,7.5,7.4998,7.498,7.503,7.5009,7.5015,7.5041,7.5092,7.5096,7.51,7.5138,7.5147,7.5155,0,0,0,0,0,0,7.4959,7.4962,7.4951,7.4993,7.5001,7.5004,7.5026,7.5012,7.5026,7.5022,7.5007,7.5009,7.5045,7.5046,7.5022,7.5087,7.5057,7.5063,7.5084,7.5093,7.51,7.5099,7.4988,0,0,0,0,0,7.4972,7.4994,7.4995,7.5031,7.5036,7.5031,7.5041,7.5033,7.5041,7.5044,7.5044,7.5052,7.507,7.5082,7.5098,7.5141,7.5142,7.5162,7.5169,7.5175,7.518,7.5203,7.5212,7.5115,7.5115,7.5115,0,0,7.4999,7.5003,7.5017,7.5039,7.5044,7.5066,7.5034,7.5058,7.5074,7.5047,7.5079,7.508,7.5087,7.5126,7.5143,7.5128,7.5206,7.518,7.5185,7.5186,7.5208,7.5217,7.5225,7.5118,7.5118,7.5117,0,0,7.5059,7.5064,7.5095,7.5102,7.5112,7.5108,7.5115,7.512,7.512,7.5152,7.5132,7.5151,7.5181,7.5188,7.5195,7.5258,7.5242,7.5264,7.53,7.5323,7.5331,7.5337,7.536,7.5368,7.5269,7.5269,7.5269,0,7.509,7.5123,7.5113,7.5139,7.5149,7.5127,7.5158,7.5165,7.5178,7.5185,7.5169,7.5207,7.5211,7.5251,7.5266,7.5273,7.5281,7.5263,7.5331,7.5337,7.5343,7.5364,7.5373,7.5271,7.5271,7.5271,7.527,0,7.5162,7.5185,7.5209,7.5224,7.5237,7.5265,7.5258,7.5272,7.5263,7.5261,7.5293,7.5297,7.5313,7.5322,7.5313,7.5361,7.5351,7.5333,7.5303,7.5355,7.5375,7.5383,7.5275,7.5274,7.5273,7.5273,0,0,7.5244,7.5254,7.5263,7.527,7.5279,7.5296,7.5324,7.5341,7.5353,7.5363,7.5386,7.5413,7.5396,7.5404,7.5395,7.5415,7.5465,7.5395,7.5395,7.5407,7.5518,7.5532,7.5541,7.5455,7.5456,7.5457,7.5517,0,7.5303,7.5352,7.5343,7.539,7.5411,7.5391,7.5415,7.5422,7.5421,7.5438,7.5437,7.5456,7.5433,7.5438,7.5457,7.5455,7.5487,7.5451,7.5474,7.5475,7.5473,7.5551,7.5565,7.5622,7.5525,7.5526,7.5527,0,7.5378,7.5393,7.5442,7.5449,7.5457,7.5479,7.5494,7.5511,7.552,7.5517,7.5527,7.5515,7.5541,7.5512,7.5548,7.5524,7.5533,7.5534,7.5536,7.5537,7.5504,7.5554,7.564,7.5648,7.5539,7.5538,7.5537,0,7.5433,7.5465,7.5499,7.5505,7.5513,7.5529,7.5533,7.554,7.5551,7.5564,7.5571,7.5587,7.5596,7.5608,7.56,7.5579,7.5637,7.5607,7.5635,7.5636,7.5648,7.5647,7.5736,7.5655,7.5655,7.5655,7.5654,0,7.55,7.5531,7.5523,7.5544,7.5578,7.5568,7.5601,7.5603,7.5609,7.5629,7.5612,7.5631,7.562,7.5637,7.5631,7.5662,7.5666,7.5664,7.5662,7.5666,7.5666,7.5671,7.5667,7.5657,7.5656,7.5656,7.5656,0,7.5566,7.5563,7.5598,7.5604,7.5606,7.5631,7.5635,7.5654,7.5652,7.5677,7.5682,7.5679,7.5699,7.5692,7.5714,7.571,7.5749,7.5742,7.5746,7.5744,7.5773,7.577,7.5867,7.5879,7.5791,7.5792,7.5793,0,7.5609,7.5632,7.5641,7.5654,7.5659,7.568,7.5692,7.5683,7.5695,7.5707,7.5724,7.5743,7.5758,7.5791,7.579,7.5806,7.5799,7.5832,7.5801,7.5804,7.5799,7.5798,7.58,7.5838,7.5839,7.584,7.584,0,7.5685,7.5682,7.57,7.5718,7.5732,7.5745,7.5757,7.5768,7.576,7.5775,7.5796,7.5807,7.583,7.5848,7.5863,7.5866,7.5852,7.585,7.5858,7.5861,7.5863,7.5862,7.5762,7.5848,7.5847,7.5847,7.5846,7.5846,7.574,7.576,7.577,7.579,7.5798,7.581,7.5828,7.5829,7.5846,7.5865,7.5858,7.5882,7.589,7.5909,7.5914,7.5932,7.5919,7.593,7.5933,7.5935,7.5939,7.586,7.5935,7.5935,7.5934,7.5934,7.5934,0,7.5815,7.5821,7.584,7.5857,7.5873,7.5859,7.5871,7.5885,7.5907,7.5916,7.5932,7.5956,7.5974,7.5975,7.5992,7.6006,7.6,7.6011,7.6009,7.601,7.595,7.5941,7.6016,7.6016,7.6016,7.6016,7.6016,7.6016,7.5856,7.5889,7.5888,7.5925,7.5929,7.5954,7.5962,7.5972,7.5979,7.6007,7.6023,7.6024,7.6029,7.6047,7.6063,7.6062,7.6069,7.6083,7.608,7.6023,7.6015,7.6007,7.5999,7.6084,7.6084,7.6139,7.6139,7.614]}]]